Wind_Speed
35 33 32 27 23 27 34 37 38 39 38 46 49 51 51 49 51 48 37 51 24 6 14 6 26 20 30 28 15 19 17 6 11 9 7 6 5 7 8 14 13 13 7 7 5 7 13 4 8 19 9 15 12 17
30 28 21 22 19 20 18 3 31 35 38 38 45 51 52 51 54 47 29 41 23 12 8 9 25 20 26 34 22 21 20 11 13 7 6 6 3 2 7 8 12 10 13 8 7 7 6 17 11 12 11 9 11 12
27 24 13 20 18 19 18 24 34 34 33 33 49 50 50 48 47 44 37 41 23 17 2 11 14 12 5 13 22 12 20 14 24 20 5 4 3 5 4 6 8 11 10 4 10 12 6 8 15 12 11 11 9 10
25 21 15 19 16 17 22 26 27 29 32 31 45 45 46 45 47 32 46 31 24 17 2 5 2 9 7 6 9 17 13 13 22 19 7 3 4 7 5 7 9 8 12 12 13 20 11 20 14 14 10 11 14 12
27 24 19 14 17 18 22 24 26 30 34 40 42 41 46 45 43 36 39 28 23 14 2 6 10 9 10 7 8 15 9 15 13 14 3 6 8 5 0 3 5 8 7 4 3 6 5 4 6 2 9 11 19 16
24 25 21 22 22 22 25 28 32 35 37 37 38 35 52 58 43 30 12 23 27 28 2 4 6 8 8 11 11 17 9 11 11 7 6 8 12 6 2 5 11 17 18 20 8 13 15 11 8 13 13 14 12 9
26 27 29 35 26 23 22 27 33 36 39 43 44 40 46 46 32 11 6 26 31 14 3 2 4 8 10 9 9 9 15 11 11 7 6 8 11 15 5 6 8 15 15 12 13 15 12 11 4 4 8 6 6 6
25 28 27 31 36 34 31 36 46 56 56 49 44 43 37 34 25 14 18 29 16 4 3 1 1 3 9 5 4 11 10 14 7 3 5 6 10 6 3 8 18 22 24 23 22 19 12 9 7 6 8 5 6 5
23 27 28 28 31 39 47 46 46 49 42 41 41 37 34 14 6 11 21 20 15 3 3 2 1 1 6 7 4 11 13 6 5 1 2 4 3 4 3 5 8 15 10 10 11 10 6 8 4 4 3 3 5 2
22 22 27 32 33 34 38 44 47 42 36 23 17 9 6 9 26 21 10 3 1 1 3 1 3 1 4 5 2 3 3 2 4 6 3 4 4 6 19 15 14 14 12 12 10 10 9 7 3 1 1 1 2 7
20 25 27 30 30 33 32 32 27 23 15 10 6 8 20 13 6 3 3 3 3 1 4 6 9 3 3 2 1 7 2 2 5 5 7 4 2 6 21 16 15 16 14 10 7 5 5 4 2 9 10 12 15 16
21 25 25 29 32 32 22 18 16 12 8 7 18 15 8 4 4 3 2 2 2 3 6 4 4 4 2 2 1 4 2 2 5 5 4 3 3 17 18 17 14 10 7 8 10 11 11 12 13 16 16 16 17 20
25 27 26 27 27 20 13 17 22 17 16 11 6 4 2 3 3 2 5 3 2 2 2 8 3 5 5 2 0 2 3 4 1 3 3 3 11 14 14 12 13 11 8 8 11 11 13 17 17 16 22 20 21 24
26 27 25 22 18 15 12 13 10 8 6 6 4 5 4 4 5 5 5 4 6 8 12 7 3 2 4 3 3 3 2 2 3 3 4 6 13 11 12 12 14 17 18 20 22 22 24 25 26 26 26 25 27 28
25 23 19 15 12 14 12 9 11 6 7 7 7 5 6 5 9 8 10 5 10 11 9 3 3 4 3 3 2 3 2 4 6 4 4 12 12 11 11 14 16 19 22 25 26 29 30 30 31 31 28 28 29 30
17 14 10 5 2 3 10 8 10 9 7 6 9 4 15 4 8 13 12 9 12 14 6 2 3 3 2 2 4 7 4 6 4 4 14 13 14 14 16 18 20 22 25 28 31 33 35 36 36 36 34 32 31 30
6 5 7 6 9 9 2 4 8 9 7 5 5 14 12 6 11 11 13 14 16 8 2 3 5 4 3 3 4 5 4 5 12 15 18 18 16 18 20 24 27 28 30 31 32 32 33 33 32 32 32 28 26 25
5 12 9 6 4 10 22 11 8 7 8 10 4 12 13 10 13 12 12 16 9 4 5 4 5 7 6 5 4 5 8 14 17 21 21 21 23 24 25 28 29 29 31 31 31 30 30 30 31 28 26 24 23 21
9 9 6 7 10 6 6 7 7 6 6 6 13 11 10 14 19 17 16 13 18 15 8 6 6 4 4 6 8 12 11 13 15 19 24 24 24 25 27 29 29 30 30 30 31 31 30 28 25 22 21 20 22 17
11 15 10 11 10 6 6 6 6 7 3 3 7 15 16 16 18 22 25 19 17 9 8 5 5 8 5 9 9 10 11 14 17 19 21 22 23 25 24 25 26 27 29 28 27 25 24 24 21 19 17 16 15 16
16 13 14 12 12 12 7 5 6 5 5 4 5 12 10 16 28 27 26 21 15 8 6 11 12 13 14 13 12 12 17 19 20 18 18 22 20 23 24 24 24 24 25 24 24 23 22 21 17 15 14 15 16 14
14 10 9 10 7 6 7 9 6 4 5 6 9 9 7 12 14 17 22 20 12 17 11 14 16 15 19 21 20 19 19 22 22 23 22 22 23 23 22 21 22 23 23 21 19 19 18 16 13 13 13 13 12 10
9 5 6 7 6 6 4 5 5 5 3 3 5 4 5 6 8 10 7 12 12 15 14 15 16 18 19 20 21 22 20 20 22 21 21 22 22 21 21 21 19 18 18 17 14 14 14 12 12 11 11 10 9 10
4 5 6 6 7 4 4 5 4 4 5 3 3 3 4 4 5 6 4 6 10 10 13 12 10 13 15 18 20 19 19 19 21 21 18 17 17 16 15 16 16 16 14 12 11 11 10 11 9 9 10 11 10 9
5 9 6 7 6 4 4 3 3 3 4 4 3 4 3 3 3 3 3 5 8 11 10 10 13 13 14 14 15 17 15 13 14 15 15 11 12 12 12 12 13 12 11 10 10 10 10 9 9 9 10 10 10 8
7 10 6 5 4 4 4 3 3 4 3 3 4 3 3 3 3 4 3 7 7 8 10 9 9 10 12 11 10 10 11 9 8 12 10 10 11 8 7 6 8 11 10 9 8 7 7 8 8 8 7 8 9 7
5 5 8 7 6 7 6 8 9 6 5 5 3 3 2 3 4 4 6 7 6 6 8 10 9 10 10 9 9 9 9 8 8 9 8 8 8 6 6 6 5 6 6 6 6 7 6 6 6 6 5 4 6 6
7 7 5 7 9 12 4 4 4 5 4 6 2 4 3 4 3 4 6 6 6 6 7 9 10 10 9 9 7 6 7 9 9 10 11 10 10 8 8 7 6 6 7 6 6 5 5 5 5 5 5 6 7 7
7 6 7 7 7 9 10 6 4 5 6 6 2 3 3 4 4 7 7 7 7 7 7 7 7 7 6 6 5 5 7 8 3 4 3 3 3 6 6 5 4 4 4 4 4 5 5 4 4 5 6 6 5 5
5 5 6 8 5 5 8 8 9 7 8 9 10 13 13 9 9 8 6 6 6 7 7 7 6 5 4 1 3 5 4 3 3 5 3 2 1 3 3 3 3 3 3 2 2 3 3 4 6 7 8 7 8 9
5 5 7 7 6 8 9 11 13 13 11 12 10 11 9 6 4 5 4 5 4 5 5 4 4 3 1 2 2 2 6 3 2 2 2 2 2 3 3 2 2 2 2 2 3 4 4 5 5 6 8 10 11 12
7 6 6 4 5 6 2 2 3 5 3 5 6 5 4 5 4 2 3 5 5 5 7 4 1 6 3 2 2 2 4 4 3 3 3 3 4 4 3 3 3 3 3 4 4 5 6 7 7 8 10 11 13 14
12 13 12 8 5 4 3 3 3 3 3 3 3 2 2 3 3 3 5 11 9 7 5 7 7 4 2 3 4 4 4 4 5 4 4 5 5 5 5 5 5 5 5 5 6 7 8 9 10 11 13 14 15 17
Wind_Direction
329 323 317 307 305 299 290 270 239 221 215 202 203 198 199 199 196 184 181 186 191 174 168 180 206 215 205 210 205 201 206 235 210 176 179 209 217 220 227 200 171 197 214 220 222 241 245 337 228 217 227 235 261 284
340 342 350 351 344 341 346 73 174 180 179 188 192 193 191 187 188 191 174 182 181 171 176 199 222 200 248 215 214 202 195 184 211 186 202 203 269 148 201 225 194 189 224 219 200 204 186 215 236 277 291 309 285 322
0 1 12 12 20 43 75 108 135 147 152 156 170 175 177 180 178 183 182 182 169 159 130 200 208 220 219 196 211 215 196 201 239 202 192 218 196 213 217 224 218 194 177 236 342 245 209 224 234 256 276 285 315 296
15 6 35 36 65 74 98 112 124 141 152 156 157 163 168 173 176 162 168 167 167 126 206 197 154 216 230 217 206 208 215 217 233 226 217 215 187 225 207 232 236 232 185 184 200 245 321 293 278 292 293 300 278 276
25 43 42 53 64 95 105 117 126 133 135 143 151 161 170 170 155 158 168 175 170 162 140 166 198 199 212 207 189 201 243 258 214 253 201 193 206 262 359 213 266 255 251 238 232 235 273 291 2 278 282 298 280 241
39 53 69 60 88 93 100 122 127 128 137 139 146 155 161 166 152 126 112 164 177 177 236 172 163 184 193 193 201 206 235 264 236 222 251 229 198 234 215 228 238 254 265 273 270 263 255 299 308 315 308 306 305 245
49 56 84 97 90 98 109 118 131 134 134 139 124 133 159 164 157 131 141 168 166 193 248 112 160 181 168 171 191 208 234 254 254 243 246 217 216 241 251 227 250 253 254 265 268 262 263 271 298 311 296 295 283 249
63 65 72 96 97 103 112 119 130 134 135 126 126 125 121 133 133 94 107 158 160 202 46 28 86 160 187 168 152 191 216 239 221 232 208 204 231 197 240 243 247 261 272 277 279 284 282 269 277 305 305 317 300 279
70 77 81 95 103 107 113 116 121 131 126 107 106 107 104 96 87 122 131 137 160 171 143 41 263 214 179 227 187 175 189 216 247 232 288 327 223 213 231 284 324 349 331 341 313 303 315 289 200 282 279 306 302 232
81 87 91 105 110 115 113 120 114 105 101 96 104 88 61 78 125 112 102 107 122 8 65 90 307 315 343 338 139 35 59 225 216 212 247 231 254 113 22 12 7 0 357 3 12 21 19 25 13 79 80 58 142 144
91 98 98 98 108 114 114 105 96 106 105 73 57 59 117 103 103 85 100 157 132 127 187 204 209 195 22 26 4 165 174 260 202 183 192 202 193 7 356 4 7 11 12 24 20 23 36 20 6 125 132 139 137 147
111 107 107 111 109 103 82 59 63 69 73 111 119 112 65 42 58 79 104 101 190 219 168 184 119 116 128 110 258 176 230 254 177 132 130 142 32 354 352 359 5 15 24 49 84 96 108 121 133 136 125 127 132 138
117 121 117 112 114 106 80 91 97 97 93 95 95 76 49 39 69 144 161 183 193 30 155 148 129 140 149 65 43 263 209 221 139 110 82 60 3 359 1 16 26 39 55 78 86 94 105 110 115 122 121 122 126 127
118 119 119 121 112 74 92 111 30 69 55 55 39 59 6 46 37 32 348 347 339 327 349 124 137 183 122 135 197 237 209 284 197 62 66 21 5 8 20 40 58 68 82 90 94 98 100 103 104 106 110 116 119 118
127 125 124 125 107 71 57 40 32 85 58 52 25 41 46 342 50 11 2 354 349 325 342 96 76 56 29 11 285 295 129 69 34 54 27 18 21 34 50 65 73 81 86 89 95 98 99 102 102 103 106 111 113 116
132 127 102 85 31 351 7 19 46 68 61 59 41 13 348 10 16 2 359 347 346 346 338 33 69 79 82 347 31 7 56 40 41 33 24 35 44 61 74 85 90 94 95 95 96 98 101 103 104 107 110 109 110 112
72 142 107 69 38 2 332 116 46 56 57 44 75 41 22 23 354 356 349 337 336 325 36 43 55 11 326 50 57 17 32 52 43 45 43 54 67 81 89 94 96 96 95 96 98 99 102 107 110 107 101 103 106 107
134 131 117 103 85 56 63 49 74 65 73 28 54 43 41 28 13 12 5 9 28 49 29 53 18 37 29 28 46 9 46 76 65 61 63 69 81 85 88 90 92 93 94 94 95 97 98 96 90 87 90 90 89 87
159 151 116 66 60 73 64 47 54 86 73 98 63 55 48 43 33 33 31 40 62 75 75 58 53 38 39 20 1 354 40 86 85 71 71 79 81 85 91 94 96 96 96 96 97 95 95 93 92 92 95 100 94 85
128 125 82 56 42 68 72 53 60 79 71 137 109 88 68 48 35 37 37 43 64 66 56 48 43 33 19 12 14 15 81 107 101 87 75 78 86 90 85 87 90 98 98 95 92 92 93 90 89 94 95 90 95 98
117 91 74 58 49 61 75 60 64 83 119 64 89 67 54 44 42 39 40 45 57 46 72 70 69 60 58 58 61 75 96 107 90 94 96 88 90 94 94 93 96 95 93 91 87 83 83 78 73 68 72 84 90 72
127 83 68 55 68 65 59 36 76 85 64 95 52 48 36 32 30 32 34 43 57 52 52 56 60 64 61 64 69 76 90 101 102 102 101 101 87 85 83 84 87 83 79 75 76 77 81 79 74 82 73 50 45 65
116 77 56 49 74 63 47 39 57 33 56 63 39 41 36 41 36 38 67 43 49 41 64 72 75 76 75 73 76 77 79 84 82 81 81 80 78 78 80 75 72 72 71 66 65 66 65 65 75 67 70 75 63 54
87 56 42 44 53 85 74 45 48 67 47 40 56 60 41 42 62 67 69 59 42 42 45 61 75 73 68 69 65 68 71 74 77 74 71 75 76 72 76 76 70 65 61 63 67 68 65 62 50 52 73 67 62 61
77 19 24 55 38 73 71 63 35 65 59 50 76 60 49 37 65 72 84 90 58 45 60 64 69 73 77 72 66 61 61 73 81 85 79 59 54 54 59 65 68 78 87 61 50 57 55 62 57 43 42 67 74 55
71 26 34 32 36 50 48 74 59 58 65 66 55 59 20 53 64 70 69 86 80 60 51 68 84 84 77 76 78 72 72 61 66 75 80 102 97 82 83 78 59 49 55 85 79 52 57 57 66 74 50 35 61 63
63 65 49 38 60 93 99 70 66 59 51 40 39 22 38 76 78 82 105 65 104 101 85 82 89 93 93 86 80 80 79 81 82 81 77 72 76 94 111 103 86 69 67 56 79 78 72 62 62 69 61 44 42 48
59 48 65 47 66 49 74 55 45 42 49 350 15 33 43 31 69 62 115 131 138 125 124 126 128 127 120 109 95 58 36 42 47 43 31 32 48 55 50 55 70 74 63 51 59 71 73 71 68 52 52 32 24 11
65 83 80 37 61 54 35 35 61 52 357 334 44 72 90 69 80 124 124 123 112 106 102 97 91 82 76 71 70 72 120 133 98 94 96 81 10 14 29 44 37 61 63 32 47 46 42 40 36 26 21 14 358 352
56 47 91 48 52 58 41 58 85 67 58 78 98 103 100 106 88 110 110 109 125 132 144 143 133 147 123 12 9 25 49 85 142 141 166 194 299 348 359 16 23 29 37 41 40 14 6 8 12 358 348 348 341 342
76 67 74 69 81 90 105 106 86 74 78 78 81 96 112 127 131 137 147 164 160 124 115 123 115 104 71 118 139 356 333 17 12 3 356 352 341 332 341 335 343 347 349 349 347 343 346 349 341 331 327 330 331 334
48 65 109 102 108 137 148 190 87 83 103 79 71 87 121 150 123 176 178 127 127 168 186 160 254 280 320 322 316 299 302 321 327 322 316 316 320 328 316 311 306 306 316 322 324 323 324 324 324 321 323 323 321 324
92 80 88 94 115 140 163 178 104 105 92 92 91 53 45 30 95 214 185 171 164 198 215 214 249 270 264 300 319 323 316 328 319 317 311 312 315 315 310 306 307 306 304 304 307 309 314 316 318 317 318 318 320 322
Height
1244 1232 1219 1210 1205 1196 1184 1174 1178 1191 1204 1217 1231 1248 1264 1279 1293 1305 1312 1327 1337 1343 1345 1352 1356 1356 1359 1360 1362 1364 1379 1381 1379 1386 1394 1391 1389 1381 1383 1381 1393 1407 1405 1404 1405 1409 1406 1379 1379 1387 1382 1381 1382 1383
1239 1226 1217 1209 1199 1187 1172 1153 1163 1183 1200 1213 1226 1242 1260 1277 1291 1306 1313 1327 1337 1343 1345 1352 1353 1357 1357 1356 1363 1366 1371 1376 1370 1375 1378 1379 1379 1379 1376 1388 1377 1394 1390 1393 1386 1388 1377 1377 1378 1377 1377 1379 1382 1381
1237 1226 1218 1211 1203 1193 1185 1180 1184 1196 1207 1218 1228 1245 1262 1279 1294 1305 1316 1327 1332 1341 1349 1355 1353 1355 1352 1354 1357 1359 1364 1371 1370 1369 1372 1372 1377 1374 1381 1376 1375 1378 1381 1390 1395 1373 1373 1374 1375 1376 1378 1379 1380 1381
1240 1230 1222 1216 1211 1207 1203 1203 1206 1212 1220 1228 1241 1255 1269 1284 1298 1307 1315 1327 1334 1340 1348 1350 1349 1352 1352 1354 1357 1360 1365 1369 1369 1368 1371 1372 1375 1367 1373 1371 1371 1370 1374 1376 1379 1378 1375 1376 1376 1375 1377 1378 1378 1378
1246 1236 1228 1224 1220 1218 1217 1218 1221 1226 1232 1242 1253 1265 1277 1290 1303 1312 1322 1329 1336 1342 1347 1350 1352 1353 1354 1356 1357 1361 1366 1371 1374 1378 1364 1370 1369 1368 1364 1367 1368 1366 1365 1371 1373 1372 1372 1373 1374 1376 1376 1374 1375 1374
1253 1245 1238 1233 1231 1230 1229 1231 1235 1241 1248 1255 1264 1273 1282 1293 1305 1311 1323 1332 1336 1343 1350 1349 1349 1350 1352 1354 1357 1360 1363 1367 1372 1370 1366 1364 1364 1367 1368 1369 1367 1367 1366 1366 1366 1368 1369 1371 1371 1371 1372 1372 1371 1371
1263 1256 1251 1245 1242 1242 1242 1244 1249 1254 1261 1269 1275 1283 1293 1303 1314 1320 1326 1329 1339 1345 1344 1343 1344 1349 1352 1355 1356 1355 1361 1363 1368 1366 1363 1361 1363 1364 1367 1367 1363 1362 1362 1363 1363 1364 1365 1367 1369 1369 1370 1371 1370 1372
1273 1269 1264 1261 1258 1257 1257 1257 1259 1264 1272 1281 1288 1296 1305 1312 1320 1327 1328 1335 1340 1343 1345 1345 1346 1348 1351 1352 1354 1357 1358 1365 1362 1355 1358 1356 1357 1357 1363 1360 1363 1364 1363 1362 1361 1362 1364 1365 1367 1368 1369 1370 1371 1372
1283 1280 1277 1274 1273 1273 1273 1274 1277 1281 1287 1293 1300 1306 1313 1321 1328 1332 1335 1340 1345 1350 1347 1351 1347 1348 1349 1350 1353 1356 1360 1361 1359 1356 1358 1359 1356 1361 1361 1360 1361 1362 1360 1359 1359 1359 1359 1360 1363 1367 1368 1370 1372 1373
1292 1290 1288 1286 1286 1287 1289 1291 1294 1298 1302 1307 1312 1316 1324 1329 1333 1337 1344 1346 1347 1347 1349 1349 1348 1350 1353 1353 1352 1355 1355 1356 1355 1355 1359 1362 1358 1358 1367 1367 1365 1364 1363 1361 1359 1359 1360 1361 1363 1365 1369 1372 1373 1375
1300 1300 1300 1300 1299 1300 1303 1306 1308 1311 1312 1314 1320 1326 1333 1335 1338 1341 1345 1345 1347 1350 1349 1349 1350 1351 1357 1358 1355 1359 1360 1359 1355 1349 1358 1357 1356 1372 1371 1369 1367 1365 1364 1363 1363 1363 1363 1364 1365 1366 1368 1369 1370 1372
1308 1309 1309 1310 1310 1312 1313 1315 1316 1317 1317 1318 1323 1332 1335 1338 1340 1342 1344 1345 1346 1344 1345 1345 1348 1352 1357 1358 1358 1355 1354 1350 1342 1347 1354 1361 1377 1377 1374 1371 1368 1366 1365 1363 1362 1362 1362 1362 1363 1365 1367 1370 1373 1375
1315 1316 1317 1319 1320 1322 1322 1323 1325 1325 1325 1328 1332 1337 1339 1343 1343 1341 1345 1344 1342 1343 1344 1345 1350 1352 1355 1355 1358 1357 1352 1347 1346 1346 1365 1380 1384 1381 1378 1373 1370 1367 1365 1364 1364 1364 1365 1365 1367 1368 1370 1375 1377 1380
1321 1323 1325 1327 1328 1329 1329 1329 1330 1330 1331 1333 1337 1342 1344 1347 1353 1356 1356 1355 1354 1351 1348 1347 1348 1347 1350 1354 1357 1350 1352 1350 1340 1344 1371 1385 1386 1383 1378 1375 1374 1372 1370 1369 1369 1370 1371 1372 1374 1375 1377 1380 1383 1387
1327 1329 1331 1332 1333 1333 1334 1333 1332 1331 1335 1342 1347 1353 1359 1363 1362 1363 1361 1357 1356 1353 1350 1349 1349 1348 1350 1355 1355 1351 1346 1356 1367 1378 1388 1391 1389 1386 1383 1381 1380 1379 1379 1378 1378 1378 1380 1381 1382 1383 1385 1389 1391 1395
1333 1334 1335 1336 1336 1335 1335 1334 1333 1334 1346 1356 1366 1367 1368 1363 1366 1365 1363 1360 1357 1353 1350 1350 1351 1354 1359 1360 1359 1365 1365 1384 1393 1396 1395 1392 1392 1390 1388 1388 1387 1387 1386 1386 1387 1387 1388 1389 1391 1394 1397 1400 1403 1406
1338 1338 1339 1340 1338 1336 1335 1336 1338 1349 1361 1369 1376 1378 1376 1375 1373 1368 1365 1362 1357 1355 1354 1354 1361 1366 1364 1365 1381 1390 1394 1400 1401 1400 1400 1399 1397 1397 1397 1396 1395 1395 1394 1395 1396 1397 1399 1401 1403 1404 1406 1411 1413 1415
1340 1341 1342 1343 1341 1341 1338 1341 1351 1364 1375 1380 1380 1381 1380 1379 1376 1372 1369 1365 1361 1362 1365 1373 1377 1381 1390 1389 1400 1408 1406 1407 1408 1407 1405 1405 1404 1403 1403 1403 1403 1403 1403 1404 1405 1406 1408 1409 1411 1414 1416 1419 1421 1424
1343 1343 1344 1344 1341 1341 1346 1355 1359 1371 1381 1384 1386 1385 1384 1383 1379 1376 1373 1370 1368 1368 1374 1387 1398 1405 1411 1415 1416 1414 1411 1410 1412 1412 1411 1411 1411 1411 1410 1410 1410 1410 1410 1411 1412 1413 1415 1417 1419 1421 1423 1425 1426 1430
1344 1346 1346 1345 1343 1345 1355 1363 1367 1374 1380 1384 1385 1387 1388 1388 1385 1381 1378 1376 1376 1380 1394 1408 1419 1424 1423 1422 1419 1416 1414 1414 1414 1416 1418 1418 1419 1418 1418 1418 1418 1419 1418 1419 1420 1421 1422 1424 1425 1427 1428 1429 1429 1431
1349 1350 1349 1349 1349 1353 1363 1369 1373 1378 1381 1382 1384 1385 1388 1388 1387 1385 1383 1386 1387 1404 1416 1424 1426 1426 1424 1422 1421 1419 1417 1417 1419 1421 1423 1424 1425 1424 1425 1425 1425 1425 1425 1426 1427 1428 1428 1430 1432 1432 1432 1431 1433 1435
1352 1354 1354 1355 1359 1365 1372 1375 1378 1381 1384 1387 1387 1389 1391 1393 1394 1395 1399 1397 1413 1424 1426 1427 1427 1427 1427 1426 1426 1426 1426 1425 1426 1427 1428 1429 1429 1430 1430 1431 1430 1430 1430 1432 1432 1432 1433 1435 1435 1435 1436 1436 1436 1436
1356 1357 1358 1361 1366 1373 1384 1382 1384 1386 1388 1392 1394 1397 1401 1404 1407 1408 1416 1427 1433 1434 1433 1433 1433 1433 1434 1434 1433 1433 1433 1433 1433 1434 1435 1436 1436 1437 1436 1436 1437 1437 1437 1438 1438 1438 1438 1439 1439 1438 1438 1439 1439 1439
1359 1361 1366 1370 1374 1382 1386 1388 1390 1393 1396 1397 1400 1406 1411 1412 1415 1421 1431 1439 1442 1441 1439 1439 1439 1440 1440 1438 1438 1439 1440 1440 1440 1440 1441 1440 1441 1441 1441 1442 1442 1442 1443 1443 1442 1442 1442 1442 1441 1440 1439 1440 1440 1440
1365 1377 1377 1379 1382 1384 1388 1393 1396 1397 1403 1404 1407 1412 1416 1416 1419 1427 1435 1444 1446 1445 1445 1445 1444 1445 1445 1446 1446 1445 1445 1445 1444 1444 1446 1448 1447 1446 1446 1445 1445 1445 1446 1447 1446 1445 1444 1444 1444 1443 1442 1441 1442 1442
1378 1387 1387 1387 1391 1390 1394 1398 1402 1405 1407 1411 1417 1419 1419 1420 1424 1434 1442 1447 1449 1449 1449 1449 1449 1448 1448 1449 1449 1449 1449 1450 1449 1448 1448 1448 1449 1450 1450 1450 1449 1448 1447 1447 1448 1448 1447 1446 1446 1446 1446 1444 1443 1443
1386 1393 1396 1396 1396 1397 1402 1407 1409 1411 1414 1418 1421 1422 1422 1425 1434 1445 1449 1450 1451 1451 1452 1451 1452 1452 1452 1452 1452 1451 1451 1451 1450 1451 1451 1450 1449 1449 1449 1450 1449 1449 1449 1448 1448 1448 1448 1447 1447 1447 1447 1445 1444 1444
1397 1400 1402 1404 1405 1406 1408 1413 1417 1422 1426 1428 1427 1431 1432 1434 1441 1447 1449 1451 1451 1452 1451 1451 1452 1453 1453 1454 1455 1455 1453 1453 1453 1453 1453 1453 1452 1451 1451 1450 1450 1450 1450 1449 1448 1448 1448 1447 1447 1447 1446 1446 1445 1444
1403 1406 1407 1410 1411 1416 1423 1425 1429 1435 1436 1433 1431 1436 1442 1446 1448 1450 1451 1452 1453 1454 1454 1455 1455 1455 1455 1455 1454 1454 1454 1455 1456 1456 1457 1456 1455 1454 1452 1451 1451 1451 1451 1451 1450 1449 1449 1448 1448 1447 1446 1445 1444 1443
1408 1408 1411 1417 1421 1429 1436 1436 1438 1438 1438 1437 1439 1444 1446 1449 1451 1452 1454 1454 1455 1455 1456 1456 1457 1458 1458 1458 1456 1455 1454 1455 1454 1455 1456 1455 1454 1453 1452 1452 1451 1451 1450 1450 1450 1450 1449 1448 1447 1447 1445 1444 1442 1441
1410 1411 1416 1424 1432 1439 1440 1440 1440 1441 1442 1442 1443 1444 1447 1450 1452 1453 1453 1454 1454 1455 1456 1457 1457 1457 1457 1457 1457 1457 1455 1455 1454 1454 1454 1453 1453 1452 1452 1451 1451 1451 1450 1450 1449 1449 1448 1447 1447 1445 1444 1442 1440 1439
1414 1416 1420 1428 1437 1441 1440 1441 1442 1443 1444 1445 1446 1448 1450 1450 1452 1454 1453 1455 1456 1457 1457 1457 1457 1456 1456 1455 1455 1455 1455 1454 1454 1454 1453 1453 1452 1452 1451 1451 1450 1450 1450 1449 1448 1448 1447 1446 1445 1444 1442 1440 1438 1436
1421 1422 1424 1430 1437 1439 1441 1441 1442 1444 1444 1446 1448 1448 1449 1449 1450 1452 1452 1453 1455 1456 1456 1456 1455 1455 1455 1455 1455 1454 1454 1454 1453 1453 1453 1452 1452 1451 1451 1450 1449 1449 1448 1448 1447 1446 1445 1444 1443 1441 1440 1438 1436 1433